• In Romania
  • List of Countries
  • For 7 days
  • Water Temperature
  • Satellite Maps
  • Weather Map
  • Weather Widgets
  • user-avatar
    Login

    Hourly Weather Nikaniha

    Today, 19 July, Thursday

    Time Temperature Precipitation Wind Pressure Humidity
    00:00 +19°C° 0 mm 3 mps 744 mmHg 80%
    01:00 +19°C° 0 mm 3 mps 744 mmHg 81%
    02:00 +19°C° 0 mm 3 mps 744 mmHg 83%
    03:00 +19°C° 0 mm 3 mps 744 mmHg 83%
    04:00 +19°C° 0 mm 4 mps 744 mmHg 82%
    05:00 +19°C° 0 mm 4 mps 744 mmHg 81%
    06:00 +20°C° 0 mm 4 mps 744 mmHg 76%
    07:00 +22°C° 0 mm 4 mps 744 mmHg 71%
    08:00 +23°C° 0 mm 5 mps 744 mmHg 66%
    09:00 +25°C° 0.1 mm 5 mps 744 mmHg 63%
    10:00 +26°C° 0.1 mm 5 mps 743 mmHg 61%
    11:00 +27°C° 0.1 mm 5 mps 743 mmHg 58%
    12:00 +27°C° 0.4 mm 5 mps 743 mmHg 63%
    13:00 +26°C° 0.4 mm 5 mps 743 mmHg 67%
    14:00 +26°C° 0.4 mm 5 mps 743 mmHg 72%
    15:00 +25°C° 0.3 mm 5 mps 743 mmHg 74%
    16:00 +25°C° 0.3 mm 5 mps 743 mmHg 76%
    17:00 +23°C° 0.3 mm 4 mps 743 mmHg 78%
    18:00 +22°C° 0 mm 4 mps 743 mmHg 80%
    19:00 +22°C° 0 mm 4 mps 743 mmHg 82%
    20:00 +21°C° 0 mm 3 mps 743 mmHg 84%
    21:00 +21°C° 0 mm 3 mps 743 mmHg 86%
    22:00 +20°C° 0 mm 3 mps 743 mmHg 89%
    23:00 +20°C° 0 mm 3 mps 743 mmHg 91%

    Tomorrow, 20 July, Friday

    Time Temperature Precipitation Wind Pressure Humidity
    00:00 +20°C° 0 mm 3 mps 743 mmHg 91%
    01:00 +20°C° 0 mm 3 mps 743 mmHg 91%
    02:00 +20°C° 0 mm 3 mps 743 mmHg 91%
    03:00 +20°C° 0.1 mm 3 mps 742 mmHg 91%
    04:00 +19°C° 0.1 mm 3 mps 742 mmHg 92%
    05:00 +19°C° 0.1 mm 4 mps 742 mmHg 92%
    06:00 +19°C° 0.1 mm 4 mps 742 mmHg 92%
    07:00 +20°C° 0.1 mm 4 mps 742 mmHg 92%
    08:00 +20°C° 0.1 mm 4 mps 742 mmHg 91%
    09:00 +20°C° 0.1 mm 4 mps 742 mmHg 90%
    10:00 +21°C° 0.1 mm 4 mps 742 mmHg 88%
    11:00 +21°C° 0.1 mm 4 mps 742 mmHg 86%
    12:00 +21°C° 0.1 mm 4 mps 742 mmHg 84%
    13:00 +22°C° 0.1 mm 4 mps 742 mmHg 83%
    14:00 +22°C° 0.1 mm 4 mps 742 mmHg 82%
    15:00 +22°C° 0.1 mm 4 mps 742 mmHg 82%
    16:00 +22°C° 0.1 mm 4 mps 742 mmHg 82%
    17:00 +22°C° 0.1 mm 4 mps 742 mmHg 82%
    18:00 +22°C° 0 mm 3 mps 741 mmHg 83%
    19:00 +22°C° 0 mm 3 mps 741 mmHg 85%
    20:00 +21°C° 0 mm 3 mps 741 mmHg 87%
    21:00 +21°C° 0 mm 3 mps 741 mmHg 90%
    22:00 +20°C° 0 mm 3 mps 741 mmHg 92%
    23:00 +20°C° 0 mm 3 mps 741 mmHg 95%

    Day after tomorrow, 21 July, Saturday

    Time Temperature Precipitation Wind Pressure Humidity
    00:00 +19°C° 0 mm 3 mps 741 mmHg 95%
    01:00 +19°C° 0 mm 3 mps 741 mmHg 96%
    02:00 +19°C° 0 mm 3 mps 741 mmHg 96%
    03:00 +19°C° 0.1 mm 3 mps 741 mmHg 96%
    04:00 +19°C° 0.1 mm 3 mps 741 mmHg 95%
    05:00 +20°C° 0.1 mm 3 mps 741 mmHg 95%
    06:00 +20°C° 0.1 mm 3 mps 741 mmHg 94%
    07:00 +20°C° 0.1 mm 3 mps 742 mmHg 93%
    08:00 +21°C° 0.1 mm 3 mps 742 mmHg 92%
    09:00 +21°C° 0.2 mm 3 mps 742 mmHg 91%
    10:00 +22°C° 0.2 mm 3 mps 742 mmHg 90%
    11:00 +22°C° 0.2 mm 3 mps 742 mmHg 89%
    12:00 +24°C° 0.2 mm 3 mps 742 mmHg 86%
    13:00 +25°C° 0.2 mm 3 mps 742 mmHg 84%
    14:00 +26°C° 0.2 mm 3 mps 742 mmHg 82%
    15:00 +26°C° 0.5 mm 3 mps 742 mmHg 81%
    16:00 +26°C° 0.5 mm 3 mps 742 mmHg 81%
    17:00 +26°C° 0.5 mm 3 mps 741 mmHg 80%
    18:00 +25°C° 0.8 mm 3 mps 741 mmHg 84%
    19:00 +24°C° 0.8 mm 3 mps 741 mmHg 89%
    20:00 +23°C° 0.8 mm 2 mps 741 mmHg 93%
    21:00 +23°C° 1.1 mm 2 mps 742 mmHg 94%
    22:00 +21°C° 1.1 mm 3 mps 742 mmHg 95%
    23:00 +21°C° 1.1 mm 3 mps 742 mmHg 96%

    22 July, Sunday

    Time Temperature Precipitation Wind Pressure Humidity
    00:00 +21°C° 0.2 mm 3 mps 742 mmHg 96%
    01:00 +20°C° 0.2 mm 3 mps 742 mmHg 97%
    02:00 +20°C° 0.2 mm 3 mps 742 mmHg 98%
    03:00 +20°C° 0.4 mm 3 mps 742 mmHg 97%
    04:00 +20°C° 0.4 mm 3 mps 742 mmHg 97%
    05:00 +20°C° 0.4 mm 3 mps 742 mmHg 97%
    06:00 +20°C° 0.1 mm 3 mps 742 mmHg 96%
    07:00 +20°C° 0.1 mm 3 mps 742 mmHg 95%
    08:00 +21°C° 0.1 mm 3 mps 742 mmHg 94%
    09:00 +21°C° 0 mm 3 mps 742 mmHg 90%
    10:00 +22°C° 0 mm 3 mps 742 mmHg 86%
    11:00 +23°C° 0 mm 4 mps 742 mmHg 83%
    12:00 +25°C° 0 mm 4 mps 742 mmHg 77%
    13:00 +26°C° 0 mm 4 mps 742 mmHg 72%
    14:00 +28°C° 0 mm 4 mps 742 mmHg 66%
    15:00 +27°C° 0 mm 4 mps 742 mmHg 67%
    16:00 +27°C° 0 mm 4 mps 742 mmHg 69%
    17:00 +27°C° 0 mm 4 mps 742 mmHg 70%
    18:00 +26°C° 0 mm 3 mps 742 mmHg 77%
    19:00 +24°C° 0 mm 3 mps 742 mmHg 83%
    20:00 +23°C° 0 mm 2 mps 742 mmHg 90%
    21:00 +21°C° 0 mm 2 mps 742 mmHg 92%
    22:00 +20°C° 0 mm 2 mps 742 mmHg 95%
    23:00 +20°C° 0 mm 2 mps 742 mmHg 97%

    23 July, Monday

    Time Temperature Precipitation Wind Pressure Humidity
    00:00 +20°C° 0 mm 2 mps 742 mmHg 97%
    01:00 +20°C° 0 mm 2 mps 742 mmHg 98%
    02:00 +20°C° 0 mm 2 mps 742 mmHg 98%
    03:00 +20°C° 0 mm 3 mps 742 mmHg 97%
    04:00 +20°C° 0 mm 3 mps 742 mmHg 96%
    05:00 +20°C° 0 mm 4 mps 742 mmHg 95%
    06:00 +21°C° 0.1 mm 4 mps 742 mmHg 94%
    07:00 +21°C° 0.1 mm 4 mps 742 mmHg 93%
    08:00 +21°C° 0.1 mm 4 mps 742 mmHg 91%
    09:00 +21°C° 0 mm 4 mps 742 mmHg 90%
    10:00 +21°C° 0 mm 4 mps 743 mmHg 89%
    11:00 +21°C° 0 mm 3 mps 743 mmHg 88%
    12:00 +22°C° 0 mm 3 mps 743 mmHg 86%
    13:00 +22°C° 0 mm 3 mps 743 mmHg 85%
    14:00 +22°C° 0 mm 3 mps 743 mmHg 83%
    15:00 +24°C° 0 mm 3 mps 743 mmHg 82%
    16:00 +24°C° 0 mm 3 mps 743 mmHg 80%
    17:00 +24°C° 0 mm 3 mps 743 mmHg 79%
    18:00 +24°C° 0 mm 2 mps 743 mmHg 83%
    19:00 +23°C° 0 mm 2 mps 743 mmHg 87%
    20:00 +21°C° 0 mm 2 mps 743 mmHg 91%
    21:00 +21°C° 1.1 mm 2 mps 743 mmHg 93%
    22:00 +20°C° 1.1 mm 2 mps 743 mmHg 95%
    23:00 +20°C° 1.1 mm 2 mps 743 mmHg 97%

    24 July, Tuesday

    Time Temperature Precipitation Wind Pressure Humidity
    00:00 +19°C° 0.4 mm 2 mps 743 mmHg 97%
    01:00 +19°C° 0.4 mm 2 mps 743 mmHg 98%
    02:00 +19°C° 0.4 mm 2 mps 743 mmHg 98%
    03:00 +19°C° 0 mm 2 mps 744 mmHg 97%
    04:00 +19°C° 0 mm 3 mps 744 mmHg 97%
    05:00 +20°C° 0 mm 3 mps 744 mmHg 96%
    06:00 +20°C° 0 mm 3 mps 744 mmHg 95%
    07:00 +20°C° 0 mm 3 mps 744 mmHg 94%
    08:00 +20°C° 0 mm 3 mps 744 mmHg 93%
    09:00 +20°C° 0 mm 3 mps 745 mmHg 91%
    10:00 +21°C° 0 mm 3 mps 745 mmHg 89%
    11:00 +21°C° 0 mm 3 mps 745 mmHg 87%
    12:00 +22°C° 0.1 mm 3 mps 745 mmHg 85%
    13:00 +24°C° 0.1 mm 3 mps 745 mmHg 83%
    14:00 +24°C° 0.1 mm 3 mps 745 mmHg 80%
    15:00 +25°C° 0.4 mm 3 mps 745 mmHg 81%
    16:00 +25°C° 0.4 mm 3 mps 745 mmHg 81%
    17:00 +25°C° 0.4 mm 3 mps 745 mmHg 82%
    18:00 +24°C° 0.1 mm 2 mps 745 mmHg 85%
    19:00 +23°C° 0.1 mm 2 mps 746 mmHg 88%
    20:00 +21°C° 0.1 mm 2 mps 746 mmHg 91%
    21:00 +20°C° 0 mm 2 mps 746 mmHg 92%
    22:00 +20°C° 0 mm 2 mps 746 mmHg 92%
    23:00 +20°C° 0 mm 2 mps 746 mmHg 93%
    Show more